EW0765 Weather Reports


Display with metric or nautical units.
time (UTC)temp
F
wind
direction
speed
MPH
gust
MPH
rain 1hr
in
rain 24hr
in
rain mn
in
humidity
%
barometer
mb
20260503214531 61 229 2.0 15.0 0.00 0.00 0.00 42 1012.5
20260503213029 60 315 0.0 8.0 0.00 0.00 0.00 45 1012.7
20260503211529 60 216 0.0 7.0 0.00 0.00 0.00 43 1012.7
20260503210029 62 222 1.0 13.0 0.00 0.00 0.00 40 1012.7
20260503204530 62 284 1.0 16.0 0.00 0.00 0.00 43 1012.6
20260503203027 62 205 0.0 10.0 0.00 0.00 0.00 41 1012.9
20260503201525 62 238 2.0 17.0 0.00 0.00 0.00 40 1012.9
20260503200024 61 226 3.0 13.0 0.00 0.00 0.00 43 1013.1
20260503194521 61 198 0.0 12.0 0.00 0.00 0.00 42 1013.4
20260503193035 62 227 3.0 15.0 0.00 0.00 0.00 43 1013.7
20260503191517 61 209 1.0 11.0 0.00 0.00 0.00 42 1014.0
20260503190016 60 315 3.0 14.0 0.00 0.00 0.00 41 1014.2
20260503184521 61 225 0.0 5.0 0.00 0.00 0.00 45 1014.3
20260503183013 61 192 2.0 10.0 0.00 0.00 0.00 43 1014.6
20260503181512 60 198 0.0 13.0 0.00 0.00 0.00 45 1014.7
20260503180016 60 202 2.0 15.0 0.00 0.00 0.00 43 1014.9
20260503174507 60 273 0.0 12.0 0.00 0.00 0.00 46 1015.1
20260503173018 60 207 2.0 19.0 0.00 0.00 0.00 45 1015.3
20260503171509 60 236 2.0 14.0 0.00 0.00 0.00 46 1015.5
20260503090110 35 269 0.0 0.0 0.00 0.14 0.00 86 1016.8
20260503081556 36 182 0.0 0.0 0.00 0.14 0.00 86 1016.9
20260503071602 36 182 0.0 0.0 0.00 0.14 0.00 86 1016.8
20260503070110 37 182 0.0 0.0 0.00 0.15 0.00 86 1016.8
20260503060107 37 182 0.0 0.0 0.00 0.15 0.00 84 1017.1
20260503054544 38 182 0.0 0.0 0.00 0.15 0.00 83 1017.1
20260503053041 38 183 0.0 0.0 0.00 0.15 0.00 82 1017.1
20260503051539 38 182 0.0 0.0 0.00 0.15 0.00 81 1017.2
20260503050036 39 182 0.0 0.0 0.00 0.22 0.00 80 1017.2
20260503044540 40 182 0.0 0.0 0.00 0.22 0.00 79 1017.3
20260503043031 40 182 0.0 0.0 0.00 0.22 0.00 78 1017.3
20260503041528 41 182 0.0 0.0 0.00 0.22 0.00 77 1017.3
20260503040029 42 182 0.0 0.0 0.00 0.28 0.22 78 1017.4
20260503034525 42 182 0.0 0.0 0.00 0.28 0.22 77 1017.5
20260503033024 42 182 0.0 0.0 0.00 0.28 0.22 77 1017.5
20260503031524 42 182 0.0 0.0 0.00 0.28 0.22 76 1017.6
20260503030024 42 183 0.0 0.0 0.00 0.28 0.22 76 1017.5
20260503024523 42 183 0.0 0.0 0.00 0.28 0.22 75 1017.7
20260503023023 42 182 0.0 0.0 0.00 0.28 0.22 75 1017.9
20260503021522 42 183 0.0 0.0 0.00 0.28 0.22 74 1017.9
20260503020022 42 182 0.0 0.0 0.00 0.28 0.22 73 1017.8
20260503014521 42 182 0.0 0.0 0.00 0.28 0.22 74 1017.8
20260503013021 42 182 0.0 0.0 0.00 0.28 0.22 72 1017.7
20260503011521 43 182 0.0 0.0 0.00 0.28 0.22 71 1017.7
20260503010020 43 182 0.0 0.0 0.00 0.28 0.22 70 1017.7
20260503004519 43 182 0.0 0.0 0.00 0.28 0.22 69 1017.6
20260503003019 44 183 0.0 0.0 0.00 0.28 0.22 67 1017.5
20260503001519 44 182 0.0 0.0 0.00 0.28 0.22 68 1017.6
20260503000020 44 182 0.0 0.0 0.00 0.28 0.22 66 1017.5
20260502234518 44 183 0.0 0.0 0.00 0.28 0.22 61 1017.5
20260502233019 45 182 0.0 0.0 0.00 0.28 0.22 63 1017.4
20260502231519 44 184 0.0 0.0 0.00 0.28 0.22 61 1017.4
20260502230023 44 286 0.0 1.0 0.00 0.28 0.22 57 1017.6
20260502224516 45 311 0.0 1.0 0.00 0.28 0.22 57 1017.5
20260502223016 45 71 0.0 2.0 0.00 0.28 0.22 59 1017.5
20260502221516 45 257 0.0 3.0 0.00 0.28 0.22 61 1017.6